When you browse on this site, cookies collect data to enhance your experience and personalize the content and advertising you see.
Visit our Privacy Policy to learn more. By continuing to use the site, you agree to this use of cookies and data.
  • In Slovakia
  • List of Countries
  • For 7 days
  • Water Temperature
  • Satellite Maps
  • Weather Map
  • Weather Widgets
  • user-avatar
    Login

    Hourly Weather Kiustendil

    Today, 21 June, Friday

    Time Temperature Precipitation Wind Pressure Humidity
    00:00 +11°C° 0 mm 1 mps 624 mmHg 80%
    01:00 +10°C° 0 mm 1 mps 624 mmHg 79%
    02:00 +10°C° 0 mm 1 mps 624 mmHg 80%
    03:00 +10°C° 0 mm 1 mps 624 mmHg 81%
    04:00 +10°C° 0 mm 1 mps 624 mmHg 82%
    05:00 +12°C° 0 mm 1 mps 625 mmHg 79%
    06:00 +14°C° 0 mm 1 mps 626 mmHg 75%
    07:00 +15°C° 0 mm 1 mps 627 mmHg 72%
    08:00 +18°C° 0.1 mm 1 mps 628 mmHg 67%
    09:00 +19°C° 0.1 mm 1 mps 628 mmHg 62%
    10:00 +21°C° 0.1 mm 1 mps 629 mmHg 57%
    11:00 +20°C° 0.6 mm 2 mps 629 mmHg 58%
    12:00 +20°C° 0.6 mm 2 mps 628 mmHg 58%
    13:00 +20°C° 0.6 mm 2 mps 628 mmHg 59%
    14:00 +20°C° 0.3 mm 2 mps 628 mmHg 58%
    15:00 +20°C° 0.3 mm 2 mps 628 mmHg 58%
    16:00 +20°C° 0.3 mm 2 mps 628 mmHg 57%
    17:00 +18°C° 0.1 mm 2 mps 627 mmHg 64%
    18:00 +16°C° 0.1 mm 1 mps 627 mmHg 71%
    19:00 +14°C° 0.1 mm 1 mps 626 mmHg 78%
    20:00 +13°C° 0.1 mm 1 mps 626 mmHg 78%
    21:00 +13°C° 0.1 mm 1 mps 626 mmHg 79%
    22:00 +12°C° 0.1 mm 1 mps 626 mmHg 79%
    23:00 +12°C° 0 mm 1 mps 626 mmHg 79%

    Tomorrow, 22 June, Saturday

    Time Temperature Precipitation Wind Pressure Humidity
    00:00 +12°C° 0 mm 1 mps 626 mmHg 79%
    01:00 +11°C° 0 mm 1 mps 626 mmHg 80%
    02:00 +11°C° 0 mm 1 mps 626 mmHg 79%
    03:00 +11°C° 0 mm 1 mps 626 mmHg 79%
    04:00 +11°C° 0 mm 1 mps 625 mmHg 79%
    05:00 +12°C° 0 mm 1 mps 626 mmHg 76%
    06:00 +14°C° 0 mm 1 mps 627 mmHg 73%
    07:00 +16°C° 0 mm 1 mps 628 mmHg 69%
    08:00 +18°C° 0 mm 1 mps 629 mmHg 64%
    09:00 +20°C° 0 mm 1 mps 629 mmHg 58%
    10:00 +21°C° 0 mm 1 mps 630 mmHg 52%
    11:00 +21°C° 0 mm 2 mps 630 mmHg 51%
    12:00 +21°C° 0 mm 2 mps 630 mmHg 51%
    13:00 +22°C° 0 mm 3 mps 630 mmHg 50%
    14:00 +23°C° 0.1 mm 2 mps 629 mmHg 50%
    15:00 +21°C° 0.1 mm 2 mps 629 mmHg 51%
    16:00 +22°C° 0.1 mm 1 mps 629 mmHg 51%
    17:00 +20°C° 0 mm 1 mps 628 mmHg 59%
    18:00 +18°C° 0 mm 1 mps 628 mmHg 66%
    19:00 +15°C° 0 mm 1 mps 627 mmHg 74%
    20:00 +14°C° 0 mm 1 mps 627 mmHg 74%
    21:00 +14°C° 0 mm 1 mps 627 mmHg 74%
    22:00 +13°C° 0 mm 1 mps 626 mmHg 75%
    23:00 +13°C° 0 mm 1 mps 626 mmHg 73%

    Day after tomorrow, 23 June, Sunday

    Time Temperature Precipitation Wind Pressure Humidity
    00:00 +13°C° 0 mm 1 mps 626 mmHg 70%
    01:00 +13°C° 0 mm 1 mps 626 mmHg 68%
    02:00 +13°C° 0 mm 1 mps 626 mmHg 69%
    03:00 +12°C° 0 mm 1 mps 626 mmHg 70%
    04:00 +12°C° 0 mm 1 mps 626 mmHg 70%
    05:00 +14°C° 0 mm 1 mps 627 mmHg 68%
    06:00 +16°C° 0 mm 1 mps 627 mmHg 66%
    07:00 +19°C° 0 mm 1 mps 628 mmHg 64%
    08:00 +21°C° 0 mm 1 mps 629 mmHg 60%
    09:00 +22°C° 0 mm 1 mps 629 mmHg 56%
    10:00 +24°C° 0 mm 1 mps 629 mmHg 53%
    11:00 +24°C° 0.1 mm 1 mps 630 mmHg 51%
    12:00 +25°C° 0.1 mm 2 mps 630 mmHg 48%
    13:00 +26°C° 0.1 mm 2 mps 630 mmHg 46%
    14:00 +25°C° 0 mm 2 mps 629 mmHg 49%
    15:00 +24°C° 0 mm 2 mps 628 mmHg 53%
    16:00 +24°C° 0 mm 3 mps 628 mmHg 56%
    17:00 +20°C° 0.7 mm 2 mps 627 mmHg 64%
    18:00 +18°C° 0.7 mm 2 mps 626 mmHg 73%
    19:00 +15°C° 0.7 mm 2 mps 626 mmHg 81%
    20:00 +14°C° 3.3 mm 2 mps 625 mmHg 86%
    21:00 +13°C° 3.3 mm 2 mps 625 mmHg 90%
    22:00 +12°C° 3.3 mm 2 mps 625 mmHg 94%
    23:00 +12°C° 0.9 mm 2 mps 625 mmHg 92%

    24 June, Monday

    Time Temperature Precipitation Wind Pressure Humidity
    00:00 +12°C° 0.9 mm 1 mps 625 mmHg 91%
    01:00 +12°C° 0.9 mm 1 mps 625 mmHg 90%
    02:00 +11°C° 0.2 mm 1 mps 625 mmHg 90%
    03:00 +11°C° 0.2 mm 1 mps 625 mmHg 90%
    04:00 +10°C° 0.2 mm 0 mps 625 mmHg 89%
    05:00 +12°C° 0.2 mm 1 mps 626 mmHg 86%
    06:00 +14°C° 0.2 mm 1 mps 626 mmHg 83%
    07:00 +16°C° 0.2 mm 1 mps 627 mmHg 79%
    08:00 +18°C° 1.2 mm 1 mps 628 mmHg 75%
    09:00 +19°C° 1.2 mm 1 mps 628 mmHg 71%
    10:00 +20°C° 1.2 mm 1 mps 628 mmHg 67%
    11:00 +20°C° 1.4 mm 1 mps 629 mmHg 65%
    12:00 +20°C° 1.4 mm 1 mps 629 mmHg 64%
    13:00 +21°C° 1.4 mm 1 mps 629 mmHg 62%
    14:00 +19°C° 1.1 mm 2 mps 629 mmHg 66%
    15:00 +19°C° 1.1 mm 2 mps 628 mmHg 69%
    16:00 +18°C° 1.1 mm 2 mps 628 mmHg 73%
    17:00 +17°C° 0.5 mm 2 mps 628 mmHg 78%
    18:00 +15°C° 0.5 mm 2 mps 628 mmHg 82%
    19:00 +14°C° 0.5 mm 1 mps 627 mmHg 86%
    20:00 +13°C° 0.5 mm 1 mps 628 mmHg 87%
    21:00 +13°C° 0.5 mm 1 mps 628 mmHg 87%
    22:00 +12°C° 0.5 mm 1 mps 628 mmHg 88%
    23:00 +12°C° 0 mm 1 mps 628 mmHg 88%

    25 June, Tuesday

    Time Temperature Precipitation Wind Pressure Humidity
    00:00 +11°C° 0 mm 1 mps 628 mmHg 88%
    01:00 +11°C° 0 mm 1 mps 628 mmHg 89%
    02:00 +11°C° 0 mm 1 mps 627 mmHg 89%
    03:00 +11°C° 0 mm 1 mps 627 mmHg 90%
    04:00 +11°C° 0 mm 1 mps 627 mmHg 90%
    05:00 +12°C° 0 mm 2 mps 628 mmHg 87%
    06:00 +14°C° 0 mm 2 mps 629 mmHg 84%
    07:00 +15°C° 0 mm 2 mps 630 mmHg 82%
    08:00 +17°C° 0.1 mm 2 mps 630 mmHg 76%
    09:00 +18°C° 0.1 mm 3 mps 631 mmHg 71%
    10:00 +19°C° 0.1 mm 3 mps 631 mmHg 65%
    11:00 +19°C° 0.5 mm 3 mps 631 mmHg 66%
    12:00 +19°C° 0.5 mm 3 mps 631 mmHg 67%
    13:00 +20°C° 0.5 mm 3 mps 631 mmHg 68%
    14:00 +19°C° 0.5 mm 3 mps 631 mmHg 69%
    15:00 +19°C° 0.5 mm 4 mps 630 mmHg 71%
    16:00 +19°C° 0.5 mm 4 mps 630 mmHg 72%
    17:00 +17°C° 0.2 mm 4 mps 630 mmHg 77%
    18:00 +16°C° 0.2 mm 3 mps 629 mmHg 83%
    19:00 +13°C° 0.2 mm 3 mps 629 mmHg 88%
    20:00 +12°C° 0 mm 3 mps 629 mmHg 89%
    21:00 +11°C° 0 mm 3 mps 629 mmHg 89%
    22:00 +12°C° 0 mm 2 mps 629 mmHg 90%
    23:00 +10°C° 0 mm 2 mps 628 mmHg 90%

    26 June, Wednesday

    Time Temperature Precipitation Wind Pressure Humidity
    00:00 +10°C° 0 mm 2 mps 628 mmHg 90%
    01:00 +10°C° 0 mm 2 mps 628 mmHg 90%
    02:00 +10°C° 0 mm 2 mps 628 mmHg 91%
    03:00 +10°C° 0 mm 2 mps 628 mmHg 92%
    04:00 +9°C° 0 mm 2 mps 628 mmHg 93%
    05:00 +12°C° 0 mm 2 mps 628 mmHg 88%
    06:00 +14°C° 0 mm 2 mps 629 mmHg 84%
    07:00 +15°C° 0 mm 2 mps 630 mmHg 80%
    08:00 +17°C° 0 mm 2 mps 630 mmHg 75%
    09:00 +18°C° 0 mm 3 mps 630 mmHg 70%
    10:00 +19°C° 0 mm 3 mps 631 mmHg 66%
    11:00 +20°C° 0.4 mm 3 mps 631 mmHg 66%
    12:00 +20°C° 0.4 mm 3 mps 631 mmHg 67%
    13:00 +20°C° 0.4 mm 3 mps 630 mmHg 67%
    14:00 +20°C° 1.1 mm 3 mps 630 mmHg 69%
    15:00 +20°C° 1.1 mm 3 mps 630 mmHg 70%
    16:00 +19°C° 1.1 mm 3 mps 629 mmHg 71%
    17:00 +18°C° 0.5 mm 3 mps 629 mmHg 76%
    18:00 +16°C° 0.5 mm 2 mps 628 mmHg 81%
    19:00 +15°C° 0.5 mm 2 mps 628 mmHg 86%
    20:00 +14°C° 0.1 mm 2 mps 628 mmHg 87%
    21:00 +14°C° 0.1 mm 2 mps 628 mmHg 88%
    22:00 +13°C° 0.1 mm 2 mps 628 mmHg 90%
    23:00 +13°C° 0 mm 2 mps 627 mmHg 90%
    Show more